Big Rapids, MI

12:20 AM EST on November 20, 2019 (GMT -0500)
Roben-Hood

Weather History for KRQB - October, 2019

Change the Weather History Date:

Wednesday, October 16, 2019

  Actual Average Record
Temperature  
Mean Temperature 46 °F -  
Max Temperature 49 °F 57 °F 73 °F (1998)
Min Temperature 43 °F 36 °F 22 °F (1977)
Degree Days  
Heating Degree Days 19    
Moisture  
Dew Point 42 °F    
Average Humidity 86    
Maximum Humidity 95    
Minimum Humidity 78    
Precipitation  
Precipitation 0.00 in - - ()
Sea Level Pressure  
Sea Level Pressure 29.68 in    
Wind  
Wind Speed 10 mph (WNW)    
Max Wind Speed 17 mph    
Max Gust Speed 29 mph    
Visibility 9 miles    
Events Rain    
Averages and records for this station are not official NWS values.
T = Trace of Precipitation, MM = Missing Value Source: NWS Daily Summary

Daily Weather History Graph

Daily Weather History Graph

Search for Another Location

Airport or City:

Astronomy

Oct. 16, 2019 Rise Set
Actual Time 7:57 AM EDT 6:57 PM EDT
Civil Twilight 7:28 AM EDT 7:26 PM EDT
Nautical Twilight 6:54 AM EDT 7:59 PM EDT
Astronomical Twilight 6:21 AM EDT 8:32 PM EDT
Moon 8:45 PM EDT (10/16) 10:30 AM EDT (10/16)
Length of Visible Light 11h 57m
Length of Day
10h 59m
Waning Gibbous, 93% of the Moon is Illuminated
Oct 16
Waning Gibbous
Oct 21
Last Quarter
Oct 27
New
Nov 4
First Quarter
Nov 12
Full

Hourly Weather History & Observations

Time (EDT) Temp. Windchill Dew Point Humidity Pressure Visibility Wind Dir Wind Speed Gust Speed Precip Events Conditions
12:15 AM 49.8 °F - 46.9 °F 90% 29.63 in 10.0 mi West 6.9 mph - N/A   Overcast
12:19 AM 49.8 °F - 46.9 °F 90% 29.63 in 10.0 mi West 8.1 mph - N/A   Overcast
12:37 AM 49.5 °F - 46.6 °F 90% 29.64 in 10.0 mi West 9.2 mph - N/A   Overcast
12:55 AM 48.9 °F - 46.2 °F 90% 29.63 in 10.0 mi West 11.5 mph - N/A   Overcast
1:15 AM 48.2 °F - 45.0 °F 89% 29.63 in 10.0 mi West 8.1 mph - N/A   Overcast
1:19 AM 48.2 °F - 44.8 °F 88% 29.63 in 10.0 mi West 6.9 mph - N/A   Overcast
1:38 AM 47.8 °F - 44.6 °F 89% 29.63 in 10.0 mi West 9.2 mph - N/A   Overcast
1:55 AM 47.3 °F - 44.2 °F 89% 29.63 in 10.0 mi West 8.1 mph - N/A   Overcast
1:56 AM 47.3 °F - 44.2 °F 89% 29.63 in 10.0 mi West 8.1 mph - N/A   Overcast
2:15 AM 46.9 °F - 43.7 °F 88% 29.63 in 10.0 mi West 8.1 mph - N/A   Overcast
2:16 AM 46.8 °F - 43.7 °F 89% 29.63 in 10.0 mi West 8.1 mph - N/A   Overcast
2:38 AM 46.8 °F - 43.2 °F 87% 29.63 in 10.0 mi West 9.2 mph - N/A   Overcast
2:56 AM 46.4 °F 42.9 °F 42.8 °F 87% 29.63 in 10.0 mi WSW 6.9 mph - N/A   Overcast
3:15 AM 46.0 °F 41.9 °F 42.4 °F 87% 29.62 in 10.0 mi WSW 8.1 mph - N/A   Overcast
3:16 AM 46.0 °F 42.5 °F 42.4 °F 87% 29.62 in 10.0 mi WSW 6.9 mph - N/A   Overcast
3:39 AM 45.7 °F 41.5 °F 42.1 °F 87% 29.62 in 10.0 mi WSW 8.1 mph - N/A   Overcast
3:56 AM 45.5 °F 40.3 °F 41.9 °F 87% 29.61 in 10.0 mi West 10.4 mph - N/A   Overcast
4:15 AM 45.0 °F 40.6 °F 41.5 °F 88% 29.61 in 7.0 mi West 8.1 mph - N/A   Overcast
4:16 AM 45.0 °F 40.6 °F 41.5 °F 88% 29.61 in 7.0 mi WSW 8.1 mph - N/A   Overcast
4:35 AM 44.6 °F 38.4 °F 41.2 °F 88% 29.60 in 10.0 mi WSW 12.7 mph 16.1 mph N/A   Overcast
4:40 AM 44.2 °F 38.0 °F 41.0 °F 88% 29.60 in 10.0 mi West 12.7 mph 17.3 mph N/A   Overcast
4:57 AM 44.1 °F 37.7 °F 40.6 °F 88% 29.60 in 10.0 mi WSW 12.7 mph - N/A   Overcast
5:15 AM 43.9 °F 39.9 °F 40.5 °F 88% 29.60 in 10.0 mi WSW 6.9 mph - N/A   Overcast
5:35 AM 43.7 °F 39.7 °F 40.1 °F 87% 29.59 in 10.0 mi WSW 6.9 mph - N/A   Overcast
5:36 AM 43.7 °F 40.3 °F 40.1 °F 87% 29.59 in 10.0 mi SW 5.8 mph - N/A   Overcast
5:57 AM 43.7 °F 39.7 °F 40.1 °F 87% 29.58 in 10.0 mi SW 6.9 mph - N/A Rain Light Rain
6:16 AM 43.2 °F 38.4 °F 40.5 °F 90% 29.57 in 10.0 mi SW 8.1 mph - N/A   Overcast
6:35 AM 43.2 °F 39.0 °F 41.2 °F 93% 29.57 in 4.0 mi WSW 6.9 mph - N/A Rain Rain
6:59 AM 44.1 °F 39.5 °F 42.6 °F 95% 29.56 in 5.0 mi WSW 8.1 mph - N/A   Overcast
7:16 AM 44.8 °F 40.4 °F 43.3 °F 95% 29.54 in 4.0 mi WSW 8.1 mph - N/A   Overcast
7:35 AM 45.7 °F 40.2 °F 44.2 °F 95% 29.53 in 5.0 mi West 11.5 mph 21.9 mph N/A Rain Light Rain
7:36 AM 45.7 °F 39.5 °F 44.4 °F 95% 29.53 in 5.0 mi West 13.8 mph 21.9 mph N/A Rain Light Rain
7:55 AM 46.2 °F 40.1 °F 44.6 °F 94% 29.52 in 10.0 mi West 13.8 mph 20.7 mph N/A   Overcast
8:00 AM 46.4 °F 40.4 °F 44.6 °F 93% 29.52 in 10.0 mi West 13.8 mph 20.7 mph N/A   Overcast
8:18 AM 46.6 °F - 45.1 °F 95% 29.52 in 10.0 mi WNW 13.8 mph 21.9 mph N/A   Overcast
8:36 AM 47.3 °F - 45.7 °F 94% 29.53 in 10.0 mi WNW 10.4 mph 17.3 mph N/A   Overcast
8:55 AM 47.3 °F - 45.7 °F 94% 29.54 in 5.0 mi NW 10.4 mph 19.6 mph N/A Rain Light Rain
9:19 AM 47.3 °F - 45.3 °F 93% 29.55 in 10.0 mi NNW 11.5 mph 23.0 mph N/A   Overcast
9:36 AM 47.3 °F - 45.3 °F 93% 29.57 in 4.0 mi NNW 8.1 mph 24.2 mph N/A Rain Light Rain
9:55 AM 46.9 °F - 45.1 °F 93% 29.57 in 3.0 mi NW 9.2 mph 23.0 mph N/A Rain Light Rain
9:56 AM 46.9 °F - 45.1 °F 93% 29.57 in 3.0 mi NNW 9.2 mph 19.6 mph N/A Rain Light Rain
10:15 AM 46.9 °F - 45.0 °F 93% 29.58 in 10.0 mi NW 10.4 mph 16.1 mph N/A Rain Light Rain
10:16 AM 46.9 °F - 45.0 °F 93% 29.58 in 10.0 mi NW 10.4 mph 17.3 mph N/A Rain Light Rain
10:38 AM 46.8 °F - 44.1 °F 90% 29.59 in 5.0 mi NNW 15.0 mph 20.7 mph N/A   Overcast
10:55 AM 46.8 °F - 43.9 °F 90% 29.60 in 7.0 mi NW 12.7 mph 24.2 mph N/A   Overcast
11:15 AM 47.5 °F - 43.5 °F 86% 29.62 in 7.0 mi NNW 10.4 mph 19.6 mph N/A   Overcast
11:39 AM 46.8 °F - 43.9 °F 90% 29.62 in 7.0 mi NNW 17.3 mph 24.2 mph N/A   Overcast
11:56 AM 47.3 °F - 43.2 °F 86% 29.64 in 10.0 mi NNW 11.5 mph 28.8 mph N/A   Overcast
12:15 PM 47.3 °F - 42.8 °F 84% 29.65 in 10.0 mi NNW 9.2 mph 21.9 mph N/A   Overcast
12:16 PM 47.3 °F - 42.8 °F 84% 29.64 in 10.0 mi NNW 10.4 mph 21.9 mph N/A   Overcast
12:35 PM 47.8 °F - 42.6 °F 82% 29.66 in 10.0 mi North 13.8 mph 23.0 mph N/A   Overcast
12:40 PM 48.0 °F - 42.6 °F 82% 29.66 in 10.0 mi NNW 8.1 mph 23.0 mph N/A   Overcast
12:57 PM 48.2 °F - 42.6 °F 81% 29.67 in 10.0 mi NNW 11.5 mph 19.6 mph N/A   Overcast
1:15 PM 47.8 °F - 43.7 °F 86% 29.67 in 7.0 mi NW 12.7 mph 18.4 mph N/A   Overcast
1:16 PM 47.8 °F - 43.7 °F 86% 29.67 in 5.0 mi NNW 12.7 mph 18.4 mph N/A Rain Light Rain
1:35 PM 47.5 °F - 43.5 °F 86% 29.68 in 10.0 mi NW 16.1 mph 24.2 mph N/A   Overcast
1:40 PM 47.7 °F - 43.2 °F 84% 29.68 in 10.0 mi NNW 13.8 mph 24.2 mph N/A   Overcast
1:57 PM 47.3 °F - 43.2 °F 86% 29.69 in 7.0 mi NW 12.7 mph 18.4 mph N/A   Overcast
2:15 PM 46.9 °F - 42.8 °F 86% 29.69 in 7.0 mi NNW 12.7 mph 23.0 mph N/A   Overcast
2:16 PM 46.9 °F - 42.8 °F 86% 29.69 in 7.0 mi NNW 13.8 mph 23.0 mph N/A   Overcast
2:35 PM 46.8 °F - 42.8 °F 86% 29.70 in 10.0 mi NNW 11.5 mph 21.9 mph N/A   Overcast
2:58 PM 47.3 °F - 41.9 °F 82% 29.71 in 10.0 mi NNW 9.2 mph 24.2 mph N/A   Overcast
3:15 PM 47.1 °F - 42.1 °F 83% 29.71 in 10.0 mi NNW 11.5 mph 20.7 mph N/A   Overcast
3:35 PM 46.8 °F - 42.1 °F 84% 29.72 in 10.0 mi NNW 12.7 mph 21.9 mph N/A   Overcast
3:36 PM 46.8 °F - 42.1 °F 84% 29.72 in 10.0 mi NNW 10.4 mph 21.9 mph N/A   Overcast
3:58 PM 46.8 °F - 41.9 °F 83% 29.74 in 10.0 mi NNW 9.2 mph 21.9 mph N/A   Overcast
4:16 PM 46.4 °F 40.1 °F 41.4 °F 83% 29.74 in 10.0 mi NNW 15.0 mph 23.0 mph N/A   Overcast
4:35 PM 46.8 °F - 41.5 °F 82% 29.75 in 10.0 mi NNW 11.5 mph 23.0 mph N/A   Overcast
4:36 PM 46.8 °F - 41.5 °F 82% 29.75 in 10.0 mi NNW 11.5 mph 23.0 mph N/A   Overcast
4:55 PM 46.8 °F - 41.2 °F 81% 29.76 in 10.0 mi NW 10.4 mph 23.0 mph N/A   Overcast
5:17 PM 45.9 °F 39.4 °F 41.9 °F 86% 29.77 in 10.0 mi NNW 15.0 mph 26.5 mph N/A   Overcast
5:35 PM 46.4 °F 41.5 °F 41.2 °F 82% 29.78 in 10.0 mi NNW 10.4 mph 20.7 mph N/A   Overcast
5:55 PM 46.4 °F 40.4 °F 40.3 °F 79% 29.78 in 10.0 mi NNW 13.8 mph 27.6 mph N/A   Overcast
5:56 PM 46.4 °F 40.7 °F 40.1 °F 79% 29.79 in 10.0 mi NNW 12.7 mph 27.6 mph N/A   Overcast
6:18 PM 46.0 °F 40.2 °F 39.6 °F 78% 29.80 in 10.0 mi NNW 12.7 mph 19.6 mph N/A   Overcast
6:36 PM 46.0 °F 42.5 °F 39.6 °F 78% 29.80 in 10.0 mi NNW 6.9 mph 18.4 mph N/A   Overcast
6:55 PM 46.0 °F 40.2 °F 39.6 °F 78% 29.81 in 10.0 mi NW 12.7 mph 20.7 mph N/A   Overcast
6:56 PM 45.9 °F 40.4 °F 39.6 °F 79% 29.81 in 10.0 mi NW 11.5 mph 20.7 mph N/A   Overcast
7:18 PM 45.0 °F 38.9 °F 39.2 °F 80% 29.82 in 10.0 mi NNW 12.7 mph 19.6 mph N/A   Overcast
7:37 PM 44.6 °F 40.2 °F 39.2 °F 81% 29.82 in 10.0 mi NW 8.1 mph 18.4 mph N/A   Mostly Cloudy
7:55 PM 44.2 °F 39.2 °F 39.2 °F 82% 29.84 in 10.0 mi NW 9.2 mph 16.1 mph N/A   Scattered Clouds
8:15 PM 43.7 °F 39.7 °F 39.6 °F 85% 29.84 in 10.0 mi NW 6.9 mph - N/A   Scattered Clouds
8:20 PM 43.7 °F 39.1 °F 39.4 °F 85% 29.84 in 10.0 mi NW 8.1 mph - N/A   Scattered Clouds
8:37 PM 43.9 °F 39.3 °F 39.2 °F 84% 29.85 in 10.0 mi NW 8.1 mph - N/A   Mostly Cloudy
8:55 PM 44.6 °F 39.7 °F 38.7 °F 80% 29.85 in 10.0 mi NW 9.2 mph - N/A   Overcast
8:56 PM 44.6 °F 39.2 °F 38.7 °F 80% 29.85 in 10.0 mi NNW 10.4 mph 16.1 mph N/A   Overcast
9:15 PM 44.8 °F 40.4 °F 38.3 °F 78% 29.85 in 10.0 mi NW 8.1 mph - N/A   Mostly Cloudy
9:16 PM 44.8 °F 39.9 °F 38.3 °F 78% 29.85 in 10.0 mi NW 9.2 mph - N/A   Mostly Cloudy
9:38 PM 44.6 °F 39.7 °F 38.3 °F 79% 29.86 in 10.0 mi NW 9.2 mph - N/A   Mostly Cloudy
9:56 PM 44.4 °F 38.2 °F 38.3 °F 79% 29.86 in 10.0 mi NW 12.7 mph 19.6 mph N/A   Scattered Clouds
10:15 PM 44.2 °F 37.6 °F 38.5 °F 80% 29.86 in 10.0 mi NW 13.8 mph 19.6 mph N/A   Scattered Clouds
10:16 PM 44.1 °F 38.6 °F 38.5 °F 81% 29.87 in 10.0 mi NW 10.4 mph 19.6 mph N/A   Scattered Clouds
10:38 PM 43.9 °F 38.8 °F 37.9 °F 80% 29.87 in 10.0 mi NW 9.2 mph 16.1 mph N/A   Scattered Clouds
11:15 PM 43.0 °F 38.2 °F 37.0 °F 80% 29.88 in 10.0 mi NW 8.1 mph - N/A   Scattered Clouds
11:35 PM 43.3 °F 38.1 °F 37.0 °F 78% 29.89 in 10.0 mi NW 9.2 mph - N/A   Mostly Cloudy
11:40 PM 43.3 °F 38.6 °F 36.9 °F 78% 29.89 in 10.0 mi NW 8.1 mph - N/A   Overcast
11:57 PM 43.2 °F 38.4 °F 36.9 °F 78% 29.89 in 10.0 mi NW 8.1 mph - N/A   Overcast